Flag for Germany Weather past 2 weeks in Waren (Müritz), Mecklenburg-Western Pomerania, Germany

Now
34 °F

Light snow. Partly cloudy.


Feels Like: 26 °F
Forecast: 28 / 35 °F
Wind: 10 mph from Southwest

Location: Laage

Current Time: Feb 1, 2015 at 6:06:57 PM

Latest Report: Feb 1, 2015 at 5:20 PM


Visibility: 4 mi

Pressure: 29.18 "Hg

Humidity: 93%

Dew point: 32 °F

Location of Waren (Müritz)Location

Historic Weather in Waren (Müritz) — Graph

°F

Waren (Müritz) temperature yesterday

Maximum temperature yesterday: 34 °F (at 12:20 AM)
Minimum temperature yesterday: 28 °F (at 8:20 PM)
Average temperature yesterday: 31 °F

Past Weeks' High & Low Weather Summary

 TemperatureHumidityPressure
High41 °F (Jan 27, 12:20 PM)100% (Jan 20, 12:20 AM)30.30 "Hg (Jan 20, 12:20 AM)
Low25 °F (Feb 1, 7:20 AM)70% (Jan 24, 12:20 PM)28.74 "Hg (Jan 30, 4:20 AM)
Average33 °F92%29.71 "Hg
* Reported Jan 17 5:20 PM — Feb 1 4:20 PM, Waren (Müritz), Weather by CustomWeather, © 2014

Note: Actual official high and low records may vary slightly from our data, if they occured in-between our weather recording intervals... More about our weather records

Advertising

Waren (Müritz) weather history for previous 24 hours

 ConditionsComfort  
Time TempWeatherWind HumidityBarometerVisibility
4:20 PM
Feb 1
34 °FPartly sunny.10 mph93%29.18 "Hg4 mi
3:20 PM34 °FPartly sunny.10 mph93%29.15 "Hg4 mi
2:20 PM34 °FPartly sunny.9 mph87%29.15 "Hg4 mi
1:46 PM32 °FPartly sunny.10 mph93%29.15 "Hg4 mi
1:20 PM32 °FIce fog.9 mph93%29.15 "Hg3 mi
12:57 PM32 °FPartly sunny.9 mph93%29.15 "Hg4 mi
12:20 PM34 °FScattered clouds.9 mph87%29.15 "Hg4 mi
11:20 AM32 °FPassing clouds.7 mph87%29.15 "Hg4 mi
10:20 AM30 °FPassing clouds.7 mph86%29.12 "HgN/A
9:20 AM27 °FScattered clouds.6 mph93%29.12 "HgN/A
8:20 AM25 °FPassing clouds.3 mph93%29.09 "HgN/A
7:20 AM25 °FPassing clouds.3 mph93%29.09 "HgN/A
6:20 AM27 °FPassing clouds.7 mph86%29.06 "HgN/A
5:20 AM27 °FPassing clouds.7 mph93%29.06 "Hg6 mi
4:20 AM28 °FPassing clouds.8 mph86%29.03 "Hg6 mi
3:20 AM27 °FPassing clouds.5 mph93%29.03 "Hg6 mi
2:20 AM27 °FPassing clouds.7 mph93%29.03 "Hg6 mi
1:20 AM27 °FPassing clouds.5 mph93%29.03 "HgN/A
12:20 AM27 °FPassing clouds.6 mph93%29.03 "HgN/A
11:20 PM
Jan 31
28 °FPassing clouds.6 mph93%29.00 "HgN/A
10:20 PM28 °FPassing clouds.7 mph93%29.00 "HgN/A
9:20 PM28 °FPassing clouds.10 mph93%29.00 "HgN/A
8:20 PM28 °FPassing clouds.9 mph93%28.97 "HgN/A
7:20 PM30 °FPassing clouds.7 mph93%28.97 "HgN/A
6:20 PM30 °FPassing clouds.9 mph93%28.97 "HgN/A
Weather by CustomWeather, © 2014

See weather overviewHow to use our weather pages